Regional Weather Roundup
Issued by NWS Charleston, WV

Home | Current Version | Previous Version | Graphics & Text | Print | Product List | Glossary On
Versions: 1 2 3 4 5 6 7 8 9 10 11 12 13 14 15 16 17 18 19 20 21 22 23 24 25 26 27 28 29 30 31 32 33 34 35 36 37 38 39 40 41 42 43 44 45 46 47 48 49 50
000
ASUS41 KRLX 190810
RWRRLX
West Virginia Regional Weather Roundup
National Weather Service Charleston WV
400 AM EDT SUN OCT 19 2014

Note: "fair" indicates few or no clouds below 12,000 feet with no
significant weather and/or obstructions to visibility.

WVZ003-190900-
Northern Panhandle of West Virginia

CITY           SKY/WX    TMP DP  RH WIND       PRES   REMARKS
WHEELING       MOCLDY    42  33  70 NW10      30.06S
$$

WVZ009-190900-
Northwest West Virginia

CITY           SKY/WX    TMP DP  RH WIND       PRES   REMARKS
PARKERSBURG    CLOUDY    47  40  76 NW7       30.12S
$$

WVZ006-190900-
Western West Virginia

CITY           SKY/WX    TMP DP  RH WIND       PRES   REMARKS
HUNTINGTON     CLOUDY    46  42  86 NW5       30.13R
$$

WVZ015-190900-
West Central West Virginia

CITY           SKY/WX    TMP DP  RH WIND       PRES   REMARKS
CHARLESTON     CLOUDY    46  42  86 NW6       30.11S
$$

WVZ022-031-190900-
North Central West Virginia

CITY           SKY/WX    TMP DP  RH WIND       PRES   REMARKS
CLARKSBURG     LGT RAIN  44  42  93 NW5       30.06R
MORGANTOWN     CLOUDY    45  38  76 NW6       30.06R
$$

WVZ025-035-042-045-190900-
Southern West Virginia

CITY           SKY/WX    TMP DP  RH WIND       PRES   REMARKS
BECKLEY        CLOUDY    40  38  93 NW8       30.07R
LOGAN          CLOUDY    45  41  87 N5        30.10S
BLUEFIELD      CLOUDY    43  39  86 VRB6      30.06S
LEWISBURG      CLOUDY    44  37  75 NW5       30.04R
$$

WVZ047-190900-
Northern Mountains of West Virginia

CITY           SKY/WX    TMP DP  RH WIND       PRES   REMARKS
ELKINS         RAIN      42  40  92 NW9       30.04R FOG
$$

WVZ052-190900-
Eastern Panhandle of West Virginia

CITY           SKY/WX    TMP DP  RH WIND       PRES   REMARKS
MARTINSBURG    CLOUDY    50  36  58 NW13G24   29.95R
PETERSBURG     CLOUDY   N/A N/A N/A NW7       29.99S
$$



USA.gov is the U.S. government's official web portal to all federal, state and local government web resources and services.